Miscellaneous Local Product
Issued by NWS North Platte, NE

Home | Current Version | Previous Version | Graphics & Text | Print | Product List | Glossary On
Versions: 1 2 3 4 5 6 7 8 9 10 11 12 13 14 15 16 17 18 19 20 21 22 23 24 25 26 27 28 29 30 31 32 33 34 35 36 37 38 39 40 41 42 43 44 45 46 47 48 49 50
000
AXUS43 KLBF 251510
MISLBF


WESTERN AND NORTH CENTRAL NEBRASKA HOURLY WEATHER ROUNDUP
NATIONAL WEATHER SERVICE NORTH PLATTE NE
1000 AM CDT WED MAY 25 2016

NOTE: "FAIR" INDICATES FEW OR NO CLOUDS BELOW 12,000 FEET WITH NO
SIGNIFICANT WEATHER AND/OR OBSTRUCTIONS TO VISIBILITY.

NOTE: STATIONS NOT REPORTING VARIABLES SUCH AS SKY/WEATHER OR
PRESSURE ARE PROVIDED BY RAWS AND APRS NETWORKS AND ARE NOT UNDER
NATIONAL WEATHER SERVICE QUALITY CONTROL.

...OBSERVATIONS IN AND NEAR THE EASTERN PANHANDLE OF NEBRASKA...

CITY           SKY/WX    TMP DP  RH WIND       PRES   REMARKS
PINE RIDGE     SUNNY     59  50  72 SW13      29.88S
CHADRON        SUNNY     59  51  75 SW10      29.90R
ALLIANCE       SUNNY     58  52  80 W10       29.91S
SIDNEY         SUNNY     62  53  72 SW12      29.98S
CRESCENT LAKE    N/A     60  54  80 SW9         N/A
BIG SPRINGS      N/A     57  55  92 W8          N/A
$$

...OBSERVATIONS IN NORTHERN NEBRASKA AND FAR SOUTHERN SOUTH DAKOTA...

CITY           SKY/WX    TMP DP  RH WIND       PRES   REMARKS
WINNER         CLOUDY    64  57  78 W14       29.81S
VALENTINE      SUNNY     64  55  72 W17       29.84S
THEDFORD       SUNNY     66  56  69 SW15      29.89R
AINSWORTH      SUNNY     65  57  77 S12       29.84R
O`NEILL        SUNNY     67  58  72 S13       29.80F
ORD            SUNNY     67  58  72 SW10      29.84F
BROKEN BOW     SUNNY     68  54  60 SW12      29.86F
BUTTE            N/A     64  57  79 SW8G15      N/A
CHAMBERS         N/A     70  60  70 MISG        N/A
EWING            N/A     68  61  78 SW12        N/A
$$

...OBSERVATIONS IN SOUTHWEST NEBRASKA AND FAR NORTHEAST COLORADO...

CITY           SKY/WX    TMP DP  RH WIND       PRES   REMARKS
HOLYOKE        PTSUNNY   64  50  59 S6        29.97R
IMPERIAL       SUNNY     65  53  65 CALM      29.94R
OGALLALA       MOSUNNY   62  54  76 W8        29.95S
NORTH PLATTE   SUNNY     67  56  67 SW5       29.90R
MCCOOK         SUNNY     69  55  60 E13       29.89R
LEXINGTON      SUNNY     67  58  72 SE6       29.89S
PAXTON           N/A     58  55  90 CALM        N/A
STAPLETON        N/A     68  58  71 CALM        N/A
GOTHENBURG       N/A     64  53  67 E3          N/A
CALLAWAY         N/A     64  59  83 SE9         N/A
$$

...OBSERVATIONS IN CENTRAL LINCOLN COUNTY AREA...

CITY           SKY/WX    TMP DP  RH WIND       PRES   REMARKS
N.P. AIRPORT   SUNNY     67  56  67 SW5       29.90R
N.P. DOWNTOWN    N/A     68  58  70 CALM        N/A
N.P. SOUTHEAST   N/A     68  56  66 CALM        N/A
N.P. HILLCREST   N/A     64  58  81 W6          N/A
$$

...SOME OBSERVATIONS FROM AROUND THE REGION...

CITY           SKY/WX    TMP DP  RH WIND       PRES   REMARKS
DENVER         MOSUNNY   57  43  59 E5        30.03R
LARAMIE        SUNNY     52  31  44 SW18      30.03F
CHEYENNE       SUNNY     59  32  36 W22       30.01S
SCOTTSBLUFF    SUNNY     60  46  59 W7        29.94S
RAPID CITY     SUNNY     60  51  72 S7        29.83F
BISMARCK       LGT RAIN  61  57  87 CALM      29.80F
PIERRE         MOSUNNY   62  56  80 W13       29.78S
SIOUX FALLS    CLOUDY    68  60  75 S13       29.79S
OMAHA          CLOUDY    68  63  84 SE15      29.87F
GRAND ISLAND   SUNNY     68  59  73 S15       29.86S
KANSAS CITY    CLOUDY    70  61  73 NE14      29.93R
WICHITA        PTSUNNY   73  67  81 S23G33    29.85R
OKLAHOMA CITY  CLOUDY    78  72  81 S23G30    29.91R
DALLAS         CLOUDY    80  72  76 S16G24    29.97R
AMARILLO       SUNNY     77  32  19 W12       29.99R
DODGE CITY     SUNNY     69  57  65 W12       29.84R
GOODLAND       CLOUDY    59  55  87 E7        29.94R
$$




USA.gov is the U.S. government's official web portal to all federal, state and local government web resources and services.